Location: Biltmore Gardens
(41.6070°N, 83.4666°W)
Time: 14:23:51
(UTC+00:00)

MetOp-B - Pass Details

Date: 14 July 2020
Orbit: 819 x 821 km, 98.7° (Epoch: 04 August)

Event Time Altitude Azimuth Distance (km) Brightness Sun altitude
Exits shadow 02:06:58 11° 150° (SSE) 2,352 5.9 -9.9°
Maximum altitude 02:12:03 59° 72° (ENE) 944 4.3 -10.6°
Drops below altitude 10° 02:17:19 10° 354° (N) 2,426 7.4 -11.3°
Sets 02:19:42 0° 351° (N) 3,363 8.2 -11.6°
